TimeCEST,TemperatureF,Dew PointF,Humidity,Sea Level PressureIn,VisibilityMPH,Wind Direction,Wind SpeedMPH,Gust SpeedMPH,PrecipitationIn,Events,Conditions,WindDirDegrees,DateUTC
12:00 AM,77.0,68.0,74,29.95,6.2,South,1.2,-,N/A,,Partly Cloudy,170,2013-07-11 22:00:00
12:30 AM,75.2,68.0,78,29.95,6.2,South,1.2,-,N/A,,Partly Cloudy,190,2013-07-11 22:30:00
1:00 AM,75.2,68.0,78,29.98,6.2,Calm,Calm,-,N/A,,Partly Cloudy,0,2013-07-11 23:00:00
1:30 AM,73.4,66.2,78,29.98,6.2,Calm,Calm,-,N/A,,Partly Cloudy,0,2013-07-11 23:30:00
2:00 AM,71,65,77,29.98,9,Calm,Calm,,,,Scattered Clouds,,2013-07-12 00:00:00
2:00 AM,71.6,66.2,83,29.98,6.2,Calm,Calm,-,N/A,,Partly Cloudy,0,2013-07-12 00:00:00
2:30 AM,71.6,66.2,83,29.98,6.2,East,2.3,-,N/A,,Partly Cloudy,100,2013-07-12 00:30:00
3:00 AM,71.6,66.2,83,29.95,6.2,NE,1.2,-,N/A,,Partly Cloudy,40,2013-07-12 01:00:00
3:30 AM,69.8,64.4,83,29.95,6.2,NE,1.2,-,N/A,,Partly Cloudy,50,2013-07-12 01:30:00
4:00 AM,68.0,64.4,88,29.95,6.2,East,1.2,-,N/A,,Partly Cloudy,80,2013-07-12 02:00:00
4:30 AM,69.8,64.4,83,29.95,6.2,Variable,1.2,-,N/A,,Partly Cloudy,0,2013-07-12 02:30:00
5:00 AM,68,64,85,29.96,9,Calm,Calm,,,,Scattered Clouds,,2013-07-12 03:00:00
5:00 AM,69.8,66.2,88,29.95,6.2,Calm,Calm,-,N/A,,Partly Cloudy,0,2013-07-12 03:00:00
5:30 AM,68.0,64.4,88,29.95,6.2,NE,3.5,-,N/A,,Partly Cloudy,50,2013-07-12 03:30:00
6:00 AM,66.2,64.4,94,29.95,6.2,ENE,2.3,-,N/A,,Partly Cloudy,60,2013-07-12 04:00:00
6:30 AM,68.0,66.2,94,29.95,-9999.0,Calm,Calm,-,N/A,,Clear,0,2013-07-12 04:30:00
7:00 AM,68.0,64.4,88,29.95,-9999.0,South,2.3,-,N/A,,Clear,170,2013-07-12 05:00:00
7:30 AM,68.0,66.2,94,29.98,-9999.0,Variable,1.2,-,N/A,,Clear,0,2013-07-12 05:30:00
8:00 AM,71,67,82,29.98,6,Calm,Calm,,,,Mist,,2013-07-12 06:00:00
8:00 AM,71.6,68.0,88,29.98,-9999.0,Calm,Calm,-,N/A,,Clear,0,2013-07-12 06:00:00
8:30 AM,75.2,69.8,83,29.98,-9999.0,Calm,Calm,-,N/A,,Clear,0,2013-07-12 06:30:00
9:00 AM,78.8,69.8,74,29.98,-9999.0,Calm,Calm,-,N/A,,Clear,0,2013-07-12 07:00:00
9:30 AM,82.4,68.0,62,30.01,-9999.0,Calm,Calm,-,N/A,,Clear,0,2013-07-12 07:30:00
10:00 AM,84.2,62.6,48,30.01,-9999.0,Variable,1.2,-,N/A,,Clear,0,2013-07-12 08:00:00
10:30 AM,86.0,53.6,33,30.01,6.2,West,3.5,-,N/A,,Partly Cloudy,260,2013-07-12 08:30:00
11:00 AM,86,56,26,30.01,16,WSW,4.6,,,,Scattered Clouds,250,2013-07-12 09:00:00
11:00 AM,86.0,55.4,35,30.01,6.2,WSW,3.5,-,N/A,,Partly Cloudy,250,2013-07-12 09:00:00
11:30 AM,86.0,60.8,43,30.01,6.2,WSW,5.8,-,N/A,,Partly Cloudy,240,2013-07-12 09:30:00
12:00 PM,86.0,64.4,48,30.01,6.2,SW,9.2,-,N/A,,Partly Cloudy,230,2013-07-12 10:00:00
12:30 PM,86.0,68.0,55,30.01,6.2,SW,9.2,-,N/A,,Partly Cloudy,230,2013-07-12 10:30:00
1:00 PM,86.0,59.0,40,30.01,6.2,SW,8.1,-,N/A,,Partly Cloudy,230,2013-07-12 11:00:00
1:30 PM,87.8,57.2,35,30.01,6.2,WSW,9.2,-,N/A,,Partly Cloudy,250,2013-07-12 11:30:00
2:00 PM,87,64,35,30.01,16,SW,12.7,,,,Scattered Clouds,230,2013-07-12 12:00:00
2:00 PM,87.8,62.6,43,30.01,6.2,SW,12.7,-,N/A,,Partly Cloudy,230,2013-07-12 12:00:00
2:30 PM,87.8,64.4,46,30.01,6.2,SW,15.0,-,N/A,,Partly Cloudy,230,2013-07-12 12:30:00
3:00 PM,86.0,68.0,55,30.01,6.2,SW,17.3,-,N/A,,Partly Cloudy,220,2013-07-12 13:00:00
3:30 PM,86.0,68.0,55,30.01,6.2,SW,17.3,-,N/A,,Partly Cloudy,220,2013-07-12 13:30:00
4:00 PM,86.0,71.6,62,30.01,6.2,SW,13.8,-,N/A,,Partly Cloudy,230,2013-07-12 14:00:00
4:30 PM,86.0,68.0,55,30.01,6.2,SW,12.7,-,N/A,,Partly Cloudy,230,2013-07-12 14:30:00
5:00 PM,86,69,49,30.00,16,SW,24.6,,,,Scattered Clouds,230,2013-07-12 15:00:00
5:00 PM,86.0,71.6,62,30.01,6.2,SW,12.7,-,N/A,,Partly Cloudy,230,2013-07-12 15:00:00
5:30 PM,84.2,71.6,66,30.01,-9999.0,WSW,12.7,-,N/A,,Clear,240,2013-07-12 15:30:00
6:00 PM,84.2,71.6,66,29.98,-9999.0,WSW,13.8,-,N/A,,Clear,250,2013-07-12 16:00:00
6:30 PM,84.2,69.8,62,29.98,-9999.0,WSW,11.5,-,N/A,,Clear,240,2013-07-12 16:30:00
7:00 PM,84.2,68.0,58,29.98,-9999.0,WSW,13.8,-,N/A,,Clear,240,2013-07-12 17:00:00
7:30 PM,82.4,69.8,66,29.98,-9999.0,WSW,11.5,-,N/A,,Clear,240,2013-07-12 17:30:00
8:00 PM,82.4,69.8,66,29.98,-9999.0,South,6.9,-,N/A,,Clear,190,2013-07-12 18:00:00
8:30 PM,82.4,69.8,66,29.98,-9999.0,South,6.9,-,N/A,,Clear,190,2013-07-12 18:30:00
9:00 PM,82.4,66.2,58,29.98,-9999.0,South,5.8,-,N/A,,Clear,170,2013-07-12 19:00:00
9:30 PM,82.4,66.2,58,29.98,-9999.0,SSW,3.5,-,N/A,,Clear,200,2013-07-12 19:30:00
10:00 PM,80.6,68.0,65,29.98,-9999.0,Calm,Calm,-,N/A,,Clear,0,2013-07-12 20:00:00
10:30 PM,78.8,68.0,69,30.01,-9999.0,Variable,1.2,-,N/A,,Clear,0,2013-07-12 20:30:00
11:00 PM,77,69,71,30.02,12,NNW,4.5,,,,Clear,340,2013-07-12 21:00:00
11:00 PM,78.8,69.8,74,30.01,-9999.0,Variable,1.2,-,N/A,,Clear,0,2013-07-12 21:00:00
11:30 PM,77.0,69.8,78,30.01,-9999.0,Calm,Calm,-,N/A,,Clear,0,2013-07-12 21:30:00